TimeCST,TemperatureF,Dew PointF,Humidity,Sea Level PressureIn,VisibilityMPH,Wind Direction,Wind SpeedMPH,Gust SpeedMPH,PrecipitationIn,Events,Conditions,WindDirDegrees,DateUTC
12:34 AM,23.0,23.0,100,30.19,10.0,North,15.0,-,N/A,,Overcast,10,2013-01-01 06:34:00
12:40 AM,23.0,23.0,100,30.19,10.0,NNE,12.7,-,N/A,,Overcast,20,2013-01-01 06:40:00
12:55 AM,23.0,22.8,99,30.19,10.0,NNE,12.7,-,0.00,,Overcast,30,2013-01-01 06:55:00
1:39 AM,23.0,23.0,100,30.19,10.0,NNE,10.4,-,N/A,,Overcast,20,2013-01-01 07:39:00
1:55 AM,22.3,22.1,99,30.20,10.0,North,11.5,-,0.00,,Overcast,10,2013-01-01 07:55:00
2:55 AM,22.1,21.7,99,30.22,10.0,NNE,9.2,-,N/A,,Overcast,20,2013-01-01 08:55:00
2:59 AM,21.2,21.2,100,30.21,10.0,NNE,9.2,-,N/A,,Overcast,20,2013-01-01 08:59:00
3:21 AM,21.2,21.2,100,30.21,10.0,NNE,9.2,-,N/A,,Overcast,20,2013-01-01 09:21:00
3:55 AM,21.4,21.0,99,30.22,10.0,NNE,9.2,-,N/A,,Overcast,20,2013-01-01 09:55:00
4:55 AM,19.9,19.8,99,30.20,10.0,NNE,9.2,-,N/A,,Overcast,20,2013-01-01 10:55:00
5:09 AM,19.4,19.4,100,30.20,10.0,North,11.5,-,N/A,,Overcast,10,2013-01-01 11:09:00
5:55 AM,19.0,18.9,99,30.19,10.0,North,13.8,-,N/A,,Overcast,360,2013-01-01 11:55:00
6:15 AM,17.6,17.6,100,30.25,10.0,North,8.1,-,N/A,,Overcast,360,2013-01-01 12:15:00
6:55 AM,16.3,14.4,92,30.27,10.0,NNE,8.1,-,N/A,,Overcast,20,2013-01-01 12:55:00
7:55 AM,15.4,13.1,90,30.30,10.0,North,6.9,-,N/A,,Overcast,10,2013-01-01 13:55:00
8:55 AM,13.1,10.8,90,30.32,10.0,North,6.9,-,N/A,,Mostly Cloudy,10,2013-01-01 14:55:00
9:55 AM,16.9,12.9,84,30.30,10.0,North,12.7,-,N/A,,Scattered Clouds,10,2013-01-01 15:55:00
10:55 AM,18.3,12.9,79,30.33,10.0,NNE,9.2,-,N/A,,Clear,20,2013-01-01 16:55:00
11:55 AM,19.9,14.0,78,30.31,10.0,NNE,5.8,-,N/A,,Partly Cloudy,20,2013-01-01 17:55:00
12:55 PM,21.7,14.4,73,30.29,10.0,North,9.2,-,N/A,,Mostly Cloudy,360,2013-01-01 18:55:00
1:55 PM,21.9,14.0,72,30.29,10.0,North,6.9,-,N/A,,Mostly Cloudy,10,2013-01-01 19:55:00
2:55 PM,22.1,13.3,69,30.29,10.0,North,6.9,-,N/A,,Overcast,350,2013-01-01 20:55:00
3:55 PM,22.1,12.7,67,30.30,10.0,North,9.2,-,N/A,,Mostly Cloudy,360,2013-01-01 21:55:00
4:55 PM,20.3,12.4,71,30.30,10.0,North,4.6,-,N/A,,Partly Cloudy,360,2013-01-01 22:55:00
5:55 PM,16.7,11.8,81,30.31,10.0,Calm,Calm,-,N/A,,Clear,0,2013-01-01 23:55:00
6:55 PM,14.2,11.8,90,30.30,10.0,Calm,Calm,-,N/A,,Clear,0,2013-01-02 00:55:00
7:55 PM,13.5,10.9,90,30.31,10.0,WSW,3.5,-,N/A,,Clear,240,2013-01-02 01:55:00
8:55 PM,12.0,10.4,93,30.32,10.0,SSW,3.5,-,N/A,,Clear,210,2013-01-02 02:55:00
9:55 PM,9.7,8.8,96,30.30,10.0,Calm,Calm,-,N/A,,Clear,0,2013-01-02 03:55:00
10:55 PM,9.1,8.6,98,30.30,10.0,SSW,3.5,-,N/A,,Clear,200,2013-01-02 04:55:00
11:55 PM,8.8,6.6,91,30.30,10.0,SW,3.5,-,N/A,,Clear,220,2013-01-02 05:55:00